This is the latest recevied weather packets stored in our database for station/object WI0K. If no packets are shown the sender has not sent any weather packets the latest 10 day(s).
| Time | Temp. | Humidity | Pressure | Rain* | Wind** | Luminosity | Snow |
|---|---|---|---|---|---|---|---|
| 1788196840 | 24.44° C | 36% | 1022.5 hPa | 0 mm | - | 354 W/m² | - |
| 1788196539 | 24.44° C | 39% | 1022.5 hPa | 0 mm | - | 352 W/m² | - |
| 1788196238 | 25° C | 36% | 1022.4 hPa | 0 mm | - | 377 W/m² | - |
| 1788195938 | 25° C | 40% | 1022.4 hPa | 0 mm | - | 400 W/m² | - |
| 1788195637 | 25.56° C | 38% | 1022.4 hPa | 0 mm | - | 381 W/m² | - |
| 1788195336 | 25° C | 39% | 1022.4 hPa | 0 mm | - | 401 W/m² | - |
| 1788195036 | 25° C | 35% | 1022.4 hPa | 0 mm | - | 407 W/m² | - |
| 1788194735 | 25.56° C | 37% | 1022.4 hPa | 0 mm | - | 402 W/m² | - |
| 1788194441 | 25.56° C | 38% | 1022.4 hPa | 0 mm | - | 474 W/m² | - |
| 1788194133 | 25.56° C | 35% | 1022.4 hPa | 0 mm | - | 471 W/m² | - |
| 1788193833 | 25.56° C | 36% | 1022.3 hPa | 0 mm | - | 464 W/m² | - |
| 1788193532 | 25° C | 42% | 1022.3 hPa | 0 mm | - | 490 W/m² | - |
| 1788193232 | 25° C | 40% | 1022.3 hPa | 0 mm | - | 423 W/m² | - |
| 1788192931 | 25° C | 40% | 1022.2 hPa | 0 mm | - | 388 W/m² | - |
| 1788192630 | 24.44° C | 35% | 1022.2 hPa | 0 mm | - | 505 W/m² | - |
| 1788192329 | 24.44° C | 42% | 1022.1 hPa | 0 mm | - | 561 W/m² | - |
| 1788192029 | 24.44° C | 38% | 1022.1 hPa | 0 mm | - | 484 W/m² | - |
| 1788191728 | 23.89° C | 39% | 1022.1 hPa | 0 mm | - | 442 W/m² | - |
| 1788191427 | 23.89° C | 43% | 1022.1 hPa | 0 mm | - | 565 W/m² | - |
| 1788191137 | 24.44° C | 44% | 1021.9 hPa | 0 mm | - | 533 W/m² | - |
| 1788190824 | 23.33° C | 44% | 1021.8 hPa | 0 mm | - | 673 W/m² | - |
| 1788190524 | 22.78° C | 43% | 1021.9 hPa | 0 mm | - | 677 W/m² | - |
| 1788190223 | 22.22° C | 47% | 1021.9 hPa | 0 mm | - | 540 W/m² | - |
| 1788189922 | 22.22° C | 49% | 1022.1 hPa | 0 mm | - | 367 W/m² | - |
| 1788189622 | 22.22° C | 49% | 1021.9 hPa | 0 mm | - | 243 W/m² | - |
* Rain latest hour (hover to see other rain measurements)
** Current wind speed in m/s (hover to see current wind gust speed)